sat.trackr.live / text

‹ back to catalog

STARLINK-11287 [DTC]

NORAD 60998 · 2024-158J

PAYLOAD ACTIVE UNKNOWN

§ Identity

Operator
Country
US
Launch date
2024-09-05
Launch site
AFETR
Launch vehicle
Mass (kg)
RCS (m²)

Purposes: comms

External: N2YO · Heavens-Above · Gunter

§ Orbital elements

Epoch: 2026-09-20T17:07:45.192000Z

Period
91.74 min
Inclination
53.1580°
Eccentricity
0.0001041
Mean motion
15.69706457 rev/d
Perigee alt
359.0 km
Apogee alt
360.4 km
Semi-major
6,737.9 km
B*
-3.3879e-6
RAAN
39.9909°
Arg perigee
78.5182°
Mean anomaly
281.5953°
Rev number
11,821

§ Raw data

STARLINK-11287 [DTC]1 60998U 24158J   26263.71371750 -.00000999  00000+0 -33879-5 0  99952 60998  53.1580  39.9909 0001041  78.5182 281.5953 15.69706457118218

JSON: /api/v1/satellites/60998 · /tle

For live sub-satellite position, see the globe view (requires WebGL).

§ Visibility from observer

Set your observer location to see the next 7 days of passes ≥ 10°. The values pass through the URL so the page stays shareable.

No JS? Fill the form by hand. The geolocation button needs JavaScript.